sat.trackr.live / text

‹ back to catalog

STARLINK-36603

NORAD 67592 · 2026-018D

PAYLOAD ACTIVE UNKNOWN

§ Identity

Operator
Country
US
Launch date
2026-01-29
Launch site
AFWTR
Launch vehicle
Mass (kg)
RCS (m²)

Purposes: comms

External: N2YO · Heavens-Above · Gunter

§ Orbital elements

Epoch: 2026-09-18T10:24:46.555488Z

Period
93.91 min
Inclination
97.2845°
Eccentricity
0.0000286
Mean motion
15.33445087 rev/d
Perigee alt
465.3 km
Apogee alt
465.7 km
Semi-major
6,843.7 km
B*
4.5853e-4
RAAN
324.9196°
Arg perigee
98.3723°
Mean anomaly
261.7553°
Rev number
3,687

§ Raw data

STARLINK-366031 67592U 26018D   26261.43387217  .00014757  00000+0  45853-3 0  99992 67592  97.2845 324.9196 0000286  98.3723 261.7553 15.33445087 36871

JSON: /api/v1/satellites/67592 · /tle

For live sub-satellite position, see the globe view (requires WebGL).

§ Visibility from observer

Set your observer location to see the next 7 days of passes ≥ 10°. The values pass through the URL so the page stays shareable.

No JS? Fill the form by hand. The geolocation button needs JavaScript.